Time,TemperatureF,DewpointF,PressureIn,WindDirection,WindDirectionDegrees,WindSpeedMPH,WindSpeedGustMPH,Humidity,HourlyPrecipIn,Conditions,Clouds,dailyrainin,SolarRadiationWatts/m^2,SoftwareType,DateUTC
2013-01-05 00:00:00,21.0,21.0,30.09,SSW,202,0.0,0.0,100,0.00,,---,0.00,0.00,VWS V14.01,2013-01-05 05:00:00,
2013-01-05 00:01:00,21.0,21.0,30.09,SW,225,0.0,0.0,100,0.00,,---,0.00,0.00,VWS V14.01,2013-01-05 05:01:00,
2013-01-05 00:06:00,20.0,20.0,30.09,SSW,202,0.0,0.0,100,0.00,,---,0.00,0.00,VWS V14.01,2013-01-05 05:06:00,
2013-01-05 00:11:00,20.0,20.0,30.10,SSW,202,0.0,0.0,100,0.00,,---,0.00,0.00,VWS V14.01,2013-01-05 05:11:00,
2013-01-05 00:16:00,20.0,20.0,30.10,SW,225,0.0,1.0,100,0.00,,---,0.00,0.00,VWS V14.01,2013-01-05 05:16:00,
2013-01-05 00:21:00,20.0,20.0,30.09,SSW,202,0.0,0.0,100,0.00,,---,0.00,0.00,VWS V14.01,2013-01-05 05:21:00,
2013-01-05 00:26:00,20.0,20.0,30.09,South,180,0.0,0.0,100,0.00,,---,0.00,0.00,VWS V14.01,2013-01-05 05:26:00,
2013-01-05 00:31:00,20.0,20.0,30.09,SSW,202,0.0,0.0,100,0.00,,---,0.00,0.00,VWS V14.01,2013-01-05 05:31:00,
2013-01-05 00:36:00,20.0,20.0,30.09,WNW,292,0.0,0.0,100,0.00,,---,0.00,0.00,VWS V14.01,2013-01-05 05:36:00,
2013-01-05 00:41:00,19.0,19.0,30.09,WSW,247,0.0,0.0,100,0.00,,---,0.00,0.00,VWS V14.01,2013-01-05 05:41:00,
2013-01-05 00:46:00,19.0,19.0,30.10,SSW,202,0.0,0.0,100,0.00,,---,0.00,0.00,VWS V14.01,2013-01-05 05:46:00,
2013-01-05 00:51:00,19.0,19.0,30.10,SW,225,0.0,0.0,100,0.00,,---,0.00,0.00,VWS V14.01,2013-01-05 05:51:00,
2013-01-05 00:56:00,19.0,19.0,30.11,SW,225,0.0,0.0,100,0.00,,---,0.00,0.00,VWS V14.01,2013-01-05 05:56:00,
2013-01-05 01:01:00,19.0,19.0,30.11,SW,225,0.0,0.0,100,0.00,,---,0.00,0.00,VWS V14.01,2013-01-05 06:01:00,
2013-01-05 01:06:00,20.0,20.0,30.09,SW,225,0.0,0.0,100,0.00,,---,0.00,0.00,VWS V14.01,2013-01-05 06:06:00,
2013-01-05 01:11:00,20.0,20.0,30.09,SW,225,0.0,1.0,100,0.00,,---,0.00,0.00,VWS V14.01,2013-01-05 06:11:00,
2013-01-05 01:16:00,20.0,20.0,30.09,SW,225,0.0,0.0,100,0.00,,---,0.00,0.00,VWS V14.01,2013-01-05 06:16:00,
2013-01-05 01:21:00,20.0,20.0,30.09,WSW,247,0.0,0.0,100,0.00,,---,0.00,0.00,VWS V14.01,2013-01-05 06:21:00,
2013-01-05 01:26:00,20.0,20.0,30.09,SSW,202,0.0,1.0,100,0.00,,---,0.00,0.00,VWS V14.01,2013-01-05 06:26:00,
2013-01-05 01:31:00,19.0,19.0,30.09,SSW,202,0.0,0.0,100,0.00,,---,0.00,0.00,VWS V14.01,2013-01-05 06:31:00,
2013-01-05 01:36:00,19.0,19.0,30.10,SSW,202,0.0,0.0,100,0.00,,---,0.00,0.00,VWS V14.01,2013-01-05 06:36:00,
2013-01-05 01:41:00,19.0,19.0,30.10,East,90,0.0,0.0,100,0.00,,---,0.00,0.00,VWS V14.01,2013-01-05 06:41:00,
2013-01-05 01:46:00,19.0,19.0,30.10,SW,225,0.0,0.0,100,0.00,,---,0.00,0.00,VWS V14.01,2013-01-05 06:46:00,
2013-01-05 01:51:00,19.0,19.0,30.10,WSW,247,0.0,3.0,100,0.00,,---,0.00,0.00,VWS V14.01,2013-01-05 06:51:00,
2013-01-05 01:56:00,19.0,19.0,30.10,SSW,202,0.0,3.0,100,0.00,,---,0.00,0.00,VWS V14.01,2013-01-05 06:56:00,
2013-01-05 02:01:00,19.0,19.0,30.10,SSW,202,0.0,1.0,100,0.00,,---,0.00,0.00,VWS V14.01,2013-01-05 07:01:00,
2013-01-05 02:06:00,19.0,19.0,30.10,SSW,202,0.0,3.0,100,0.00,,---,0.00,0.00,VWS V14.01,2013-01-05 07:06:00,
2013-01-05 02:11:00,19.0,19.0,30.10,SSW,202,1.0,2.0,100,0.00,,---,0.00,0.00,VWS V14.01,2013-01-05 07:11:00,
2013-01-05 02:16:00,19.0,19.0,30.10,South,180,0.0,0.0,100,0.00,,---,0.00,0.00,VWS V14.01,2013-01-05 07:16:00,
2013-01-05 02:21:00,19.0,19.0,30.10,SSW,202,0.0,1.0,100,0.00,,---,0.00,0.00,VWS V14.01,2013-01-05 07:21:00,
2013-01-05 02:26:00,19.0,19.0,30.10,SSW,202,0.0,0.0,100,0.00,,---,0.00,0.00,VWS V14.01,2013-01-05 07:26:00,
2013-01-05 02:31:00,19.0,19.0,30.10,SW,225,0.0,0.0,100,0.00,,---,0.00,0.00,VWS V14.01,2013-01-05 07:31:00,
2013-01-05 02:36:00,19.0,19.0,30.10,SW,225,0.0,0.0,100,0.00,,---,0.00,0.00,VWS V14.01,2013-01-05 07:36:00,
2013-01-05 02:41:00,19.0,19.0,30.10,SW,225,0.0,0.0,100,0.00,,---,0.00,0.00,VWS V14.01,2013-01-05 07:41:00,
2013-01-05 02:46:00,19.0,19.0,30.11,South,180,0.0,0.0,100,0.00,,---,0.00,0.00,VWS V14.01,2013-01-05 07:46:00,
2013-01-05 02:51:00,19.0,19.0,30.11,SW,225,0.0,0.0,100,0.00,,---,0.00,0.00,VWS V14.01,2013-01-05 07:51:00,
2013-01-05 02:56:00,19.0,19.0,30.11,SSW,202,0.0,0.0,100,0.00,,---,0.00,0.00,VWS V14.01,2013-01-05 07:56:00,
2013-01-05 03:01:00,19.0,19.0,30.11,SW,225,0.0,1.0,100,0.00,,---,0.00,0.00,VWS V14.01,2013-01-05 08:01:00,
2013-01-05 03:06:00,19.0,19.0,30.11,SSW,202,1.0,1.0,100,0.00,,---,0.00,0.00,VWS V14.01,2013-01-05 08:06:00,
2013-01-05 03:11:00,19.0,19.0,30.11,SSW,202,0.0,1.0,100,0.00,,---,0.00,0.00,VWS V14.01,2013-01-05 08:11:00,
2013-01-05 03:16:00,19.0,19.0,30.11,SSW,202,0.0,0.0,100,0.00,,---,0.00,0.00,VWS V14.01,2013-01-05 08:16:00,
2013-01-05 03:21:00,19.0,19.0,30.11,SSW,202,0.0,0.0,100,0.00,,---,0.00,0.00,VWS V14.01,2013-01-05 08:21:00,
2013-01-05 03:26:00,19.0,19.0,30.11,WSW,247,0.0,1.0,100,0.00,,---,0.00,0.00,VWS V14.01,2013-01-05 08:26:00,
2013-01-05 03:31:00,19.0,19.0,30.11,SSW,202,0.0,3.0,100,0.00,,---,0.00,0.00,VWS V14.01,2013-01-05 08:31:00,
2013-01-05 03:36:00,19.0,19.0,30.11,West,270,0.0,2.0,100,0.00,,---,0.00,0.00,VWS V14.01,2013-01-05 08:36:00,
2013-01-05 03:41:00,19.0,19.0,30.11,South,180,0.0,3.0,100,0.00,,---,0.00,0.00,VWS V14.01,2013-01-05 08:41:00,
2013-01-05 03:46:00,19.0,19.0,30.10,South,180,0.0,0.0,100,0.00,,---,0.00,0.00,VWS V14.01,2013-01-05 08:46:00,
2013-01-05 03:51:00,19.0,19.0,30.10,SW,225,0.0,0.0,100,0.00,,---,0.00,0.00,VWS V14.01,2013-01-05 08:51:00,
2013-01-05 03:56:00,19.0,19.0,30.11,SW,225,0.0,3.0,100,0.00,,---,0.00,0.00,VWS V14.01,2013-01-05 08:56:00,
2013-01-05 04:01:00,19.0,19.0,30.11,South,180,0.0,0.0,100,0.00,,---,0.00,0.00,VWS V14.01,2013-01-05 09:01:00,
2013-01-05 04:06:00,19.0,19.0,30.10,SSW,202,0.0,1.0,100,0.00,,---,0.00,0.00,VWS V14.01,2013-01-05 09:06:00,
2013-01-05 04:11:00,19.0,19.0,30.10,SSW,202,0.0,0.0,100,0.00,,---,0.00,0.00,VWS V14.01,2013-01-05 09:11:00,
2013-01-05 04:16:00,18.0,18.0,30.10,SSW,202,0.0,0.0,100,0.00,,---,0.00,0.00,VWS V14.01,2013-01-05 09:16:00,
2013-01-05 04:21:00,18.0,18.0,30.10,SSW,202,0.0,0.0,100,0.00,,---,0.00,0.00,VWS V14.01,2013-01-05 09:21:00,
2013-01-05 04:26:00,18.0,18.0,30.10,SSW,202,0.0,0.0,100,0.00,,---,0.00,0.00,VWS V14.01,2013-01-05 09:26:00,
2013-01-05 04:31:00,17.0,17.0,30.10,SSW,202,0.0,0.0,100,0.00,,---,0.00,0.00,VWS V14.01,2013-01-05 09:31:00,
2013-01-05 04:36:00,18.0,18.0,30.10,SSW,202,0.0,0.0,100,0.00,,---,0.00,0.00,VWS V14.01,2013-01-05 09:36:00,
2013-01-05 04:41:00,17.0,17.0,30.10,SSW,202,0.0,0.0,100,0.00,,---,0.00,0.00,VWS V14.01,2013-01-05 09:41:00,
2013-01-05 04:46:00,17.0,17.0,30.10,SSW,202,0.0,0.0,100,0.00,,---,0.00,0.00,VWS V14.01,2013-01-05 09:46:00,
2013-01-05 04:51:00,17.0,17.0,30.10,SSW,202,0.0,0.0,100,0.00,,---,0.00,0.00,VWS V14.01,2013-01-05 09:51:00,
2013-01-05 04:56:00,18.0,18.0,30.09,SW,225,0.0,1.0,100,0.00,,---,0.00,0.00,VWS V14.01,2013-01-05 09:56:00,
2013-01-05 05:01:00,17.0,17.0,30.09,SW,225,0.0,0.0,100,0.00,,---,0.00,0.00,VWS V14.01,2013-01-05 10:01:00,
2013-01-05 05:06:00,17.0,17.0,30.10,SW,225,0.0,0.0,100,0.00,,---,0.00,0.00,VWS V14.01,2013-01-05 10:06:00,
2013-01-05 05:11:00,17.0,17.0,30.10,SW,225,0.0,0.0,100,0.00,,---,0.00,0.00,VWS V14.01,2013-01-05 10:11:00,
2013-01-05 05:16:00,16.0,16.0,30.10,SW,225,0.0,0.0,100,0.00,,---,0.00,0.00,VWS V14.01,2013-01-05 10:16:00,
2013-01-05 05:21:00,16.0,16.0,30.10,SW,225,0.0,0.0,100,0.00,,---,0.00,0.00,VWS V14.01,2013-01-05 10:21:00,
2013-01-05 05:26:00,16.0,16.0,30.10,SW,225,0.0,0.0,100,0.00,,---,0.00,0.00,VWS V14.01,2013-01-05 10:26:00,
2013-01-05 05:31:00,16.0,16.0,30.10,SW,225,0.0,0.0,100,0.00,,---,0.00,0.00,VWS V14.01,2013-01-05 10:31:00,
2013-01-05 05:36:00,16.0,16.0,30.11,SW,225,0.0,0.0,100,0.00,,---,0.00,0.00,VWS V14.01,2013-01-05 10:36:00,
2013-01-05 05:41:00,16.0,16.0,30.11,SW,225,0.0,0.0,100,0.00,,---,0.00,0.00,VWS V14.01,2013-01-05 10:41:00,
2013-01-05 05:46:00,16.0,16.0,30.11,SW,225,0.0,0.0,100,0.00,,---,0.00,0.00,VWS V14.01,2013-01-05 10:46:00,
2013-01-05 05:51:00,16.0,16.0,30.11,SW,225,0.0,0.0,100,0.00,,---,0.00,0.00,VWS V14.01,2013-01-05 10:51:00,
2013-01-05 05:56:00,16.0,16.0,30.10,SW,225,0.0,0.0,100,0.00,,---,0.00,0.00,VWS V14.01,2013-01-05 10:56:00,
2013-01-05 06:01:00,16.0,16.0,30.10,SW,225,0.0,0.0,100,0.00,,---,0.00,0.00,VWS V14.01,2013-01-05 11:01:00,
2013-01-05 06:06:00,16.0,16.0,30.09,SW,225,0.0,0.0,100,0.00,,---,0.00,0.00,VWS V14.01,2013-01-05 11:06:00,
2013-01-05 06:11:00,16.0,16.0,30.09,SW,225,0.0,0.0,100,0.00,,---,0.00,0.00,VWS V14.01,2013-01-05 11:11:00,
2013-01-05 06:16:00,16.0,16.0,30.09,SW,225,0.0,0.0,100,0.00,,---,0.00,0.00,VWS V14.01,2013-01-05 11:16:00,
2013-01-05 06:21:00,16.0,16.0,30.09,SW,225,0.0,0.0,100,0.00,,---,0.00,0.00,VWS V14.01,2013-01-05 11:21:00,
2013-01-05 06:26:00,16.0,16.0,30.09,SSE,157,0.0,0.0,100,0.00,,---,0.00,0.00,VWS V14.01,2013-01-05 11:26:00,
2013-01-05 06:31:00,16.0,16.0,30.09,South,180,0.0,0.0,100,0.00,,---,0.00,0.00,VWS V14.01,2013-01-05 11:31:00,
2013-01-05 06:36:00,16.0,16.0,30.08,South,180,0.0,0.0,100,0.00,,---,0.00,0.00,VWS V14.01,2013-01-05 11:36:00,
2013-01-05 06:41:00,16.0,16.0,30.08,South,180,0.0,0.0,100,0.00,,---,0.00,0.00,VWS V14.01,2013-01-05 11:41:00,
2013-01-05 06:46:00,16.0,16.0,30.09,SSW,202,0.0,0.0,100,0.00,,---,0.00,0.00,VWS V14.01,2013-01-05 11:46:00,
2013-01-05 06:51:00,16.0,16.0,30.09,SSW,202,0.0,1.0,100,0.00,,---,0.00,0.00,VWS V14.01,2013-01-05 11:51:00,
2013-01-05 06:56:00,17.0,17.0,30.10,SSW,202,0.0,0.0,100,0.00,,---,0.00,0.00,VWS V14.01,2013-01-05 11:56:00,
2013-01-05 07:01:00,17.0,17.0,30.10,SSW,202,0.0,2.0,100,0.00,,---,0.00,0.00,VWS V14.01,2013-01-05 12:01:00,
2013-01-05 07:06:00,17.0,17.0,30.10,SSW,202,0.0,1.0,100,0.00,,---,0.00,0.00,VWS V14.01,2013-01-05 12:06:00,
2013-01-05 07:11:00,17.0,17.0,30.10,South,180,0.0,0.0,100,0.00,,---,0.00,0.00,VWS V14.01,2013-01-05 12:11:00,
2013-01-05 07:16:00,18.0,18.0,30.09,SW,225,0.0,1.0,100,0.00,,---,0.00,0.00,VWS V14.01,2013-01-05 12:16:00,
2013-01-05 07:21:00,18.0,18.0,30.09,SW,225,0.0,0.0,100,0.00,,---,0.00,0.00,VWS V14.01,2013-01-05 12:21:00,
2013-01-05 07:26:00,18.0,18.0,30.09,SSE,157,0.0,3.0,100,0.00,,---,0.00,0.00,VWS V14.01,2013-01-05 12:26:00,
2013-01-05 07:31:00,18.0,18.0,30.09,SSW,202,0.0,0.0,100,0.00,,---,0.00,0.00,VWS V14.01,2013-01-05 12:31:00,
2013-01-05 07:36:00,18.0,18.0,30.09,South,180,0.0,0.0,100,0.00,,---,0.00,0.00,VWS V14.01,2013-01-05 12:36:00,
2013-01-05 07:41:00,18.0,18.0,30.09,South,180,0.0,1.0,100,0.00,,---,0.00,0.00,VWS V14.01,2013-01-05 12:41:00,
2013-01-05 07:46:00,18.0,18.0,30.09,South,180,0.0,0.0,100,0.00,,---,0.00,0.00,VWS V14.01,2013-01-05 12:46:00,
2013-01-05 07:51:00,18.0,18.0,30.09,SSW,202,0.0,0.0,100,0.00,,---,0.00,0.00,VWS V14.01,2013-01-05 12:51:00,
2013-01-05 07:56:00,18.0,18.0,30.09,South,180,0.0,0.0,100,0.00,,---,0.00,0.00,VWS V14.01,2013-01-05 12:56:00,
2013-01-05 08:01:00,18.0,18.0,30.09,SSW,202,0.0,1.0,100,0.00,,---,0.00,0.00,VWS V14.01,2013-01-05 13:01:00,
2013-01-05 08:06:00,18.0,18.0,30.10,SSW,202,0.0,2.0,100,0.00,,---,0.00,0.00,VWS V14.01,2013-01-05 13:06:00,
2013-01-05 08:11:00,18.0,18.0,30.10,SSW,202,0.0,2.0,100,0.00,,---,0.00,0.00,VWS V14.01,2013-01-05 13:11:00,
2013-01-05 08:16:00,18.0,18.0,30.10,SSE,157,0.0,0.0,100,0.00,,---,0.00,0.00,VWS V14.01,2013-01-05 13:16:00,
2013-01-05 08:21:00,18.0,18.0,30.10,SSW,202,0.0,1.0,100,0.00,,---,0.00,0.00,VWS V14.01,2013-01-05 13:21:00,
2013-01-05 08:26:00,18.0,18.0,30.10,SSW,202,0.0,0.0,100,0.00,,---,0.00,0.00,VWS V14.01,2013-01-05 13:26:00,
2013-01-05 08:31:00,19.0,19.0,30.10,SSW,202,0.0,0.0,100,0.00,,---,0.00,0.00,VWS V14.01,2013-01-05 13:31:00,
2013-01-05 08:36:00,19.0,19.0,30.10,SSW,202,0.0,0.0,100,0.00,,---,0.00,0.00,VWS V14.01,2013-01-05 13:36:00,
2013-01-05 08:41:00,20.0,20.0,30.10,SSW,202,0.0,1.0,100,0.00,,---,0.00,0.00,VWS V14.01,2013-01-05 13:41:00,
2013-01-05 08:46:00,20.0,20.0,30.09,SSE,157,0.0,0.0,100,0.00,,---,0.00,0.00,VWS V14.01,2013-01-05 13:46:00,
2013-01-05 08:51:00,21.0,21.0,30.09,SSW,202,1.0,1.0,100,0.00,,---,0.00,0.00,VWS V14.01,2013-01-05 13:51:00,
2013-01-05 08:56:00,21.0,21.0,30.08,SSW,202,1.0,2.0,100,0.00,,---,0.00,0.00,VWS V14.01,2013-01-05 13:56:00,
2013-01-05 09:01:00,22.0,22.0,30.08,South,180,2.0,4.0,100,0.00,,---,0.00,0.00,VWS V14.01,2013-01-05 14:01:00,
2013-01-05 09:06:00,22.0,22.0,30.07,South,180,0.0,4.0,100,0.00,,---,0.00,0.00,VWS V14.01,2013-01-05 14:06:00,
2013-01-05 09:11:00,22.0,22.0,30.07,SSW,202,0.0,3.0,100,0.00,,---,0.00,0.00,VWS V14.01,2013-01-05 14:11:00,
2013-01-05 09:16:00,23.0,23.0,30.04,South,180,1.0,3.0,100,0.00,,---,0.00,0.00,VWS V14.01,2013-01-05 14:16:00,
2013-01-05 09:21:00,24.0,24.0,30.04,South,180,0.0,1.0,100,0.00,,---,0.00,0.00,VWS V14.01,2013-01-05 14:21:00,
2013-01-05 09:26:00,25.0,25.0,29.99,South,180,1.0,1.0,100,0.00,,---,0.00,0.00,VWS V14.01,2013-01-05 14:26:00,
2013-01-05 09:31:00,25.0,25.0,29.99,South,180,0.0,1.0,100,0.00,,---,0.00,0.00,VWS V14.01,2013-01-05 14:31:00,
2013-01-05 09:36:00,26.0,26.0,29.95,South,180,1.0,4.0,100,0.00,,---,0.00,0.00,VWS V14.01,2013-01-05 14:36:00,
2013-01-05 09:41:00,26.0,26.0,29.95,South,180,0.0,3.0,100,0.00,,---,0.00,0.00,VWS V14.01,2013-01-05 14:41:00,
2013-01-05 09:46:00,27.0,27.0,29.94,SSW,202,1.0,3.0,100,0.00,,---,0.00,0.00,VWS V14.01,2013-01-05 14:46:00,
2013-01-05 09:51:00,27.0,27.0,29.94,South,180,1.0,4.0,100,0.00,,---,0.00,0.00,VWS V14.01,2013-01-05 14:51:00,
2013-01-05 09:56:00,28.0,27.8,29.93,SSW,202,4.0,4.0,99,0.00,,---,0.00,0.00,VWS V14.01,2013-01-05 14:56:00,
2013-01-05 10:01:00,28.0,27.0,29.93,ESE,112,4.0,5.0,96,0.00,,---,0.00,0.00,VWS V14.01,2013-01-05 15:01:00,
2013-01-05 10:06:00,28.0,27.3,30.02,SSW,202,3.0,4.0,97,0.00,,---,0.00,0.00,VWS V14.01,2013-01-05 15:06:00,
2013-01-05 10:11:00,27.0,26.8,30.02,SW,225,2.0,4.0,99,0.00,,---,0.00,0.00,VWS V14.01,2013-01-05 15:11:00,
2013-01-05 10:16:00,28.0,27.5,30.01,SSE,157,0.0,1.0,98,0.00,,---,0.00,0.00,VWS V14.01,2013-01-05 15:16:00,
2013-01-05 10:21:00,28.0,27.5,30.01,South,180,3.0,4.0,98,0.00,,---,0.00,0.00,VWS V14.01,2013-01-05 15:21:00,
2013-01-05 10:26:00,28.0,27.3,30.01,SW,225,0.0,4.0,97,0.00,,---,0.00,0.00,VWS V14.01,2013-01-05 15:26:00,
2013-01-05 10:31:00,29.0,28.3,30.01,SSE,157,2.0,2.0,97,0.00,,---,0.00,0.00,VWS V14.01,2013-01-05 15:31:00,
2013-01-05 10:36:00,30.0,28.0,29.92,SSE,157,1.0,5.0,92,0.00,,---,0.00,0.00,VWS V14.01,2013-01-05 15:36:00,
2013-01-05 10:41:00,31.0,28.4,29.92,SSE,157,3.0,6.0,90,0.00,,---,0.00,0.00,VWS V14.01,2013-01-05 15:41:00,
2013-01-05 10:46:00,31.0,28.4,30.01,SSW,202,0.0,0.0,90,0.00,,---,0.00,0.00,VWS V14.01,2013-01-05 15:46:00,
2013-01-05 10:51:00,31.0,28.1,30.01,SSW,202,1.0,3.0,89,0.00,,---,0.00,0.00,VWS V14.01,2013-01-05 15:51:00,
2013-01-05 10:56:00,32.0,28.6,30.00,SSW,202,1.0,4.0,87,0.00,,---,0.00,0.00,VWS V14.01,2013-01-05 15:56:00,
2013-01-05 11:01:00,32.0,28.6,30.00,South,180,3.0,6.0,87,0.00,,---,0.00,0.00,VWS V14.01,2013-01-05 16:01:00,
2013-01-05 11:06:00,32.0,28.0,29.91,South,180,3.0,7.0,85,0.00,,---,0.00,0.00,VWS V14.01,2013-01-05 16:06:00,
2013-01-05 11:11:00,33.0,28.7,29.91,SSW,202,4.0,4.0,84,0.00,,---,0.00,0.00,VWS V14.01,2013-01-05 16:11:00,
2013-01-05 11:16:00,33.0,28.1,29.95,SSW,202,3.0,5.0,82,0.00,,---,0.00,0.00,VWS V14.01,2013-01-05 16:16:00,
2013-01-05 11:21:00,34.0,28.8,29.95,WSW,247,2.0,5.0,81,0.00,,---,0.00,0.00,VWS V14.01,2013-01-05 16:21:00,
2013-01-05 11:26:00,35.0,28.9,29.97,SSW,202,2.0,6.0,78,0.00,,---,0.00,0.00,VWS V14.01,2013-01-05 16:26:00,
2013-01-05 11:31:00,34.0,28.2,29.97,South,180,4.0,4.0,79,0.00,,---,0.00,0.00,VWS V14.01,2013-01-05 16:31:00,
2013-01-05 11:36:00,34.0,27.9,30.00,SSW,202,4.0,5.0,78,0.00,,---,0.00,0.00,VWS V14.01,2013-01-05 16:36:00,
2013-01-05 11:41:00,33.0,27.5,30.00,SSE,157,4.0,5.0,80,0.00,,---,0.00,0.00,VWS V14.01,2013-01-05 16:41:00,
2013-01-05 11:46:00,33.0,27.8,30.00,South,180,3.0,7.0,81,0.00,,---,0.00,0.00,VWS V14.01,2013-01-05 16:46:00,
2013-01-05 11:51:00,33.0,27.8,30.00,SE,135,4.0,4.0,81,0.00,,---,0.00,0.00,VWS V14.01,2013-01-05 16:51:00,
2013-01-05 11:56:00,34.0,28.5,30.00,SSE,157,4.0,5.0,80,0.00,,---,0.00,0.00,VWS V14.01,2013-01-05 16:56:00,
2013-01-05 12:01:00,33.0,27.8,30.00,South,180,3.0,5.0,81,0.00,,---,0.00,0.00,VWS V14.01,2013-01-05 17:01:00,
2013-01-05 12:06:00,34.0,28.5,29.99,South,180,3.0,5.0,80,0.00,,---,0.00,0.00,VWS V14.01,2013-01-05 17:06:00,
2013-01-05 12:11:00,34.0,28.5,29.99,SSE,157,4.0,5.0,80,0.00,,---,0.00,0.00,VWS V14.01,2013-01-05 17:11:00,
2013-01-05 12:16:00,34.0,27.9,29.99,South,180,0.0,6.0,78,0.00,,---,0.00,0.00,VWS V14.01,2013-01-05 17:16:00,
2013-01-05 12:21:00,35.0,29.5,29.99,SSW,202,0.0,2.0,80,0.00,,---,0.00,0.00,VWS V14.01,2013-01-05 17:21:00,
2013-01-05 12:26:00,34.0,27.6,29.99,WSW,247,1.0,4.0,77,0.00,,---,0.00,0.00,VWS V14.01,2013-01-05 17:26:00,
2013-01-05 12:31:00,35.0,28.2,29.99,SE,135,3.0,3.0,76,0.00,,---,0.00,0.00,VWS V14.01,2013-01-05 17:31:00,
2013-01-05 12:36:00,35.0,28.5,29.97,SSW,202,2.0,5.0,77,0.00,,---,0.00,0.00,VWS V14.01,2013-01-05 17:36:00,
2013-01-05 12:41:00,35.0,28.5,29.97,South,180,2.0,3.0,77,0.00,,---,0.00,0.00,VWS V14.01,2013-01-05 17:41:00,
2013-01-05 12:46:00,36.0,29.2,29.96,WSW,247,0.0,3.0,76,0.00,,---,0.00,0.00,VWS V14.01,2013-01-05 17:46:00,
2013-01-05 12:51:00,37.0,29.5,29.96,South,180,3.0,4.0,74,0.00,,---,0.00,0.00,VWS V14.01,2013-01-05 17:51:00,
2013-01-05 12:56:00,37.0,28.8,29.95,SSW,202,3.0,5.0,72,0.00,,---,0.00,0.00,VWS V14.01,2013-01-05 17:56:00,
2013-01-05 13:01:00,37.0,28.8,29.95,SSW,202,3.0,5.0,72,0.00,,---,0.00,0.00,VWS V14.01,2013-01-05 18:01:00,
2013-01-05 13:06:00,37.0,28.5,29.94,SSW,202,6.0,6.0,71,0.00,,---,0.00,0.00,VWS V14.01,2013-01-05 18:06:00,
2013-01-05 13:11:00,37.0,28.8,29.94,SSW,202,1.0,1.0,72,0.00,,---,0.00,0.00,VWS V14.01,2013-01-05 18:11:00,
2013-01-05 13:16:00,38.0,29.1,29.93,South,180,4.0,5.0,70,0.00,,---,0.00,0.00,VWS V14.01,2013-01-05 18:16:00,
2013-01-05 13:21:00,39.0,29.4,29.93,South,180,0.0,3.0,68,0.00,,---,0.00,0.00,VWS V14.01,2013-01-05 18:21:00,
2013-01-05 13:26:00,39.0,28.6,29.94,WNW,292,0.0,5.0,66,0.00,,---,0.00,0.00,VWS V14.01,2013-01-05 18:26:00,
2013-01-05 13:31:00,38.0,28.4,29.94,SSE,157,3.0,4.0,68,0.01,,---,0.01,0.00,VWS V14.01,2013-01-05 18:31:00,
2013-01-05 13:36:00,39.0,29.4,29.94,SSW,202,5.0,5.0,68,0.01,,---,0.01,0.00,VWS V14.01,2013-01-05 18:36:00,
2013-01-05 13:41:00,38.0,29.1,29.94,South,180,0.0,3.0,70,0.01,,---,0.01,0.00,VWS V14.01,2013-01-05 18:41:00,
2013-01-05 13:46:00,38.0,28.8,29.94,South,180,0.0,7.0,69,0.01,,---,0.01,0.00,VWS V14.01,2013-01-05 18:46:00,
2013-01-05 13:51:00,38.0,29.1,29.94,SSW,202,3.0,4.0,70,0.01,,---,0.02,0.00,VWS V14.01,2013-01-05 18:51:00,
2013-01-05 13:56:00,38.0,28.4,29.93,SSW,202,4.0,5.0,68,0.02,,---,0.02,0.00,VWS V14.01,2013-01-05 18:56:00,
2013-01-05 14:01:00,39.0,29.4,29.93,SSW,202,4.0,7.0,68,0.02,,---,0.02,0.00,VWS V14.01,2013-01-05 19:01:00,
2013-01-05 14:06:00,39.0,29.0,29.92,SW,225,3.0,6.0,67,0.02,,---,0.02,0.00,VWS V14.01,2013-01-05 19:06:00,
2013-01-05 14:11:00,39.0,28.6,29.92,South,180,2.0,3.0,66,0.03,,---,0.03,0.00,VWS V14.01,2013-01-05 19:11:00,
2013-01-05 14:16:00,39.0,28.6,29.92,South,180,3.0,5.0,66,0.03,,---,0.03,0.00,VWS V14.01,2013-01-05 19:16:00,
2013-01-05 14:21:00,39.0,28.6,29.92,SSW,202,2.0,5.0,66,0.03,,---,0.04,0.00,VWS V14.01,2013-01-05 19:21:00,
2013-01-05 14:26:00,39.0,28.6,29.92,SSW,202,3.0,4.0,66,0.04,,---,0.04,0.00,VWS V14.01,2013-01-05 19:26:00,
2013-01-05 14:31:00,39.0,29.0,29.92,South,180,0.0,3.0,67,0.03,,---,0.04,0.00,VWS V14.01,2013-01-05 19:31:00,
2013-01-05 14:36:00,39.0,29.4,29.92,SSW,202,0.0,2.0,68,0.03,,---,0.04,0.00,VWS V14.01,2013-01-05 19:36:00,
2013-01-05 14:41:00,39.0,28.6,29.92,South,180,3.0,4.0,66,0.04,,---,0.05,0.00,VWS V14.01,2013-01-05 19:41:00,
2013-01-05 14:46:00,39.0,29.4,29.93,SW,225,4.0,4.0,68,0.04,,---,0.05,0.00,VWS V14.01,2013-01-05 19:46:00,
2013-01-05 14:51:00,38.0,28.8,29.93,SSW,202,1.0,4.0,69,0.04,,---,0.05,0.00,VWS V14.01,2013-01-05 19:51:00,
2013-01-05 14:56:00,38.0,28.4,29.92,SSW,202,5.0,7.0,68,0.03,,---,0.06,0.00,VWS V14.01,2013-01-05 19:56:00,
2013-01-05 15:01:00,38.0,28.4,29.92,SSW,202,2.0,6.0,68,0.04,,---,0.06,0.00,VWS V14.01,2013-01-05 20:01:00,
2013-01-05 15:06:00,38.0,29.1,29.93,SW,225,0.0,5.0,70,0.04,,---,0.06,0.00,VWS V14.01,2013-01-05 20:06:00,
2013-01-05 15:11:00,38.0,29.1,29.93,SW,225,2.0,4.0,70,0.03,,---,0.06,0.00,VWS V14.01,2013-01-05 20:11:00,
2013-01-05 15:16:00,38.0,29.1,29.93,South,180,3.0,6.0,70,0.03,,---,0.06,0.00,VWS V14.01,2013-01-05 20:16:00,
2013-01-05 15:21:00,38.0,29.1,29.93,SSW,202,1.0,6.0,70,0.03,,---,0.06,0.00,VWS V14.01,2013-01-05 20:21:00,
2013-01-05 15:26:00,38.0,29.5,29.92,SSE,157,1.0,1.0,71,0.02,,---,0.06,0.00,VWS V14.01,2013-01-05 20:26:00,
2013-01-05 15:31:00,38.0,29.1,29.92,WSW,247,2.0,6.0,70,0.03,,---,0.07,0.00,VWS V14.01,2013-01-05 20:31:00,
2013-01-05 15:36:00,38.0,29.1,29.93,SSW,202,5.0,5.0,70,0.03,,---,0.07,0.00,VWS V14.01,2013-01-05 20:36:00,
2013-01-05 15:41:00,37.0,28.8,29.93,SSW,202,3.0,4.0,72,0.02,,---,0.07,0.00,VWS V14.01,2013-01-05 20:41:00,
2013-01-05 15:46:00,37.0,29.2,29.95,SSW,202,4.0,5.0,73,0.02,,---,0.07,0.00,VWS V14.01,2013-01-05 20:46:00,
2013-01-05 15:51:00,37.0,29.5,29.95,WNW,292,0.0,4.0,74,0.02,,---,0.07,0.00,VWS V14.01,2013-01-05 20:51:00,
2013-01-05 15:56:00,37.0,29.5,29.95,WSW,247,1.0,5.0,74,0.02,,---,0.07,0.00,VWS V14.01,2013-01-05 20:56:00,
2013-01-05 16:01:00,37.0,30.1,29.95,SW,225,3.0,4.0,76,0.01,,---,0.07,0.00,VWS V14.01,2013-01-05 21:01:00,
2013-01-05 16:06:00,37.0,30.1,29.95,SSW,202,0.0,5.0,76,0.01,,---,0.08,0.00,VWS V14.01,2013-01-05 21:06:00,
2013-01-05 16:11:00,37.0,30.1,29.95,SSW,202,0.0,6.0,76,0.02,,---,0.08,0.00,VWS V14.01,2013-01-05 21:11:00,
2013-01-05 16:16:00,37.0,30.1,29.96,SSW,202,3.0,7.0,76,0.02,,---,0.08,0.00,VWS V14.01,2013-01-05 21:16:00,
2013-01-05 16:21:00,36.0,29.5,29.96,SW,225,3.0,4.0,77,0.02,,---,0.08,0.00,VWS V14.01,2013-01-05 21:21:00,
2013-01-05 16:26:00,36.0,29.5,29.97,SSW,202,5.0,5.0,77,0.02,,---,0.08,0.00,VWS V14.01,2013-01-05 21:26:00,
2013-01-05 16:31:00,36.0,30.1,29.97,SSW,202,2.0,3.0,79,0.01,,---,0.08,0.00,VWS V14.01,2013-01-05 21:31:00,
2013-01-05 16:36:00,36.0,30.8,29.97,SSW,202,9.0,9.0,81,0.01,,---,0.08,0.00,VWS V14.01,2013-01-05 21:36:00,
2013-01-05 16:41:00,36.0,31.6,29.97,SSW,202,0.0,4.0,84,0.01,,---,0.08,0.00,VWS V14.01,2013-01-05 21:41:00,
2013-01-05 16:46:00,35.0,31.0,29.98,SSW,202,0.0,4.0,85,0.01,,---,0.08,0.00,VWS V14.01,2013-01-05 21:46:00,
2013-01-05 16:51:00,35.0,32.1,29.98,WSW,247,2.0,3.0,89,0.01,,---,0.08,0.00,VWS V14.01,2013-01-05 21:51:00,
2013-01-05 16:56:00,34.0,32.5,29.99,SSW,202,3.0,8.0,94,0.01,,---,0.08,0.00,VWS V14.01,2013-01-05 21:56:00,
2013-01-05 17:01:00,33.0,33.0,29.99,South,180,4.0,6.0,100,0.01,,---,0.08,0.00,VWS V14.01,2013-01-05 22:01:00,
2013-01-05 17:06:00,33.0,33.0,29.98,SSW,202,3.0,8.0,100,0.01,,---,0.08,0.00,VWS V14.01,2013-01-05 22:06:00,
2013-01-05 17:11:00,33.0,33.0,29.98,SSW,202,1.0,3.0,100,0.00,,---,0.08,0.00,VWS V14.01,2013-01-05 22:11:00,
2013-01-05 17:16:00,32.0,32.0,29.99,South,180,3.0,3.0,100,0.00,,---,0.08,0.00,VWS V14.01,2013-01-05 22:16:00,
2013-01-05 17:21:00,32.0,32.0,29.99,SSW,202,0.0,1.0,100,0.00,,---,0.08,0.00,VWS V14.01,2013-01-05 22:21:00,
2013-01-05 17:26:00,32.0,32.0,29.98,WSW,247,0.0,3.0,100,0.00,,---,0.08,0.00,VWS V14.01,2013-01-05 22:26:00,
2013-01-05 17:31:00,32.0,32.0,29.98,SSE,157,0.0,1.0,100,0.00,,---,0.08,0.00,VWS V14.01,2013-01-05 22:31:00,
2013-01-05 17:36:00,32.0,32.0,29.98,SSW,202,0.0,1.0,100,0.00,,---,0.08,0.00,VWS V14.01,2013-01-05 22:36:00,
2013-01-05 17:41:00,31.0,31.0,29.98,WNW,292,0.0,1.0,100,0.00,,---,0.08,0.00,VWS V14.01,2013-01-05 22:41:00,
2013-01-05 17:46:00,32.0,32.0,29.98,SSE,157,0.0,1.0,100,0.00,,---,0.08,0.00,VWS V14.01,2013-01-05 22:46:00,
2013-01-05 17:51:00,31.0,31.0,29.98,SW,225,0.0,4.0,100,0.00,,---,0.08,0.00,VWS V14.01,2013-01-05 22:51:00,
2013-01-05 17:56:00,31.0,31.0,29.98,SSW,202,0.0,3.0,100,0.00,,---,0.08,0.00,VWS V14.01,2013-01-05 22:56:00,
2013-01-05 18:01:00,31.0,31.0,29.98,South,180,3.0,3.0,100,0.00,,---,0.08,0.00,VWS V14.01,2013-01-05 23:01:00,
2013-01-05 18:06:00,31.0,31.0,29.98,SSW,202,0.0,3.0,100,0.00,,---,0.08,0.00,VWS V14.01,2013-01-05 23:06:00,
2013-01-05 18:11:00,31.0,31.0,29.98,West,270,0.0,2.0,100,0.00,,---,0.08,0.00,VWS V14.01,2013-01-05 23:11:00,
2013-01-05 18:16:00,31.0,31.0,29.98,SW,225,0.0,0.0,100,0.00,,---,0.08,0.00,VWS V14.01,2013-01-05 23:16:00,
2013-01-05 18:21:00,31.0,31.0,29.98,SSW,202,3.0,4.0,100,0.00,,---,0.08,0.00,VWS V14.01,2013-01-05 23:21:00,
2013-01-05 18:26:00,31.0,31.0,29.97,SSW,202,3.0,4.0,100,0.00,,---,0.08,0.00,VWS V14.01,2013-01-05 23:26:00,
2013-01-05 18:31:00,31.0,31.0,29.97,ESE,112,3.0,5.0,100,0.01,,---,0.09,0.00,VWS V14.01,2013-01-05 23:31:00,
2013-01-05 18:36:00,31.0,31.0,29.97,SSE,157,3.0,4.0,100,0.01,,---,0.09,0.00,VWS V14.01,2013-01-05 23:36:00,
2013-01-05 18:41:00,31.0,31.0,29.97,South,180,2.0,5.0,100,0.01,,---,0.09,0.00,VWS V14.01,2013-01-05 23:41:00,
2013-01-05 18:46:00,31.0,31.0,29.97,SSW,202,4.0,5.0,100,0.01,,---,0.09,0.00,VWS V14.01,2013-01-05 23:46:00,
2013-01-05 18:51:00,31.0,31.0,29.97,SSW,202,3.0,6.0,100,0.01,,---,0.09,0.00,VWS V14.01,2013-01-05 23:51:00,
2013-01-05 18:56:00,31.0,31.0,29.97,South,180,3.0,5.0,100,0.01,,---,0.09,0.00,VWS V14.01,2013-01-05 23:56:00,
2013-01-05 19:01:00,31.0,31.0,29.97,SSW,202,3.0,5.0,100,0.01,,---,0.09,0.00,VWS V14.01,2013-01-06 00:01:00,
2013-01-05 19:06:00,31.0,31.0,29.97,SSW,202,0.0,3.0,100,0.01,,---,0.09,0.00,VWS V14.01,2013-01-06 00:06:00,
2013-01-05 19:11:00,31.0,31.0,29.97,South,180,1.0,3.0,100,0.01,,---,0.09,0.00,VWS V14.01,2013-01-06 00:11:00,
2013-01-05 19:16:00,31.0,31.0,29.97,SSW,202,1.0,6.0,100,0.01,,---,0.09,0.00,VWS V14.01,2013-01-06 00:16:00,
2013-01-05 19:21:00,31.0,31.0,29.97,South,180,0.0,3.0,100,0.01,,---,0.09,0.00,VWS V14.01,2013-01-06 00:21:00,
2013-01-05 19:26:00,31.0,31.0,29.97,SSW,202,3.0,3.0,100,0.01,,---,0.09,0.00,VWS V14.01,2013-01-06 00:26:00,
2013-01-05 19:31:00,31.0,31.0,29.97,SSW,202,0.0,0.0,100,0.00,,---,0.09,0.00,VWS V14.01,2013-01-06 00:31:00,
2013-01-05 19:36:00,31.0,31.0,29.97,SSW,202,2.0,3.0,100,0.00,,---,0.09,0.00,VWS V14.01,2013-01-06 00:36:00,
2013-01-05 19:41:00,31.0,31.0,29.97,SSW,202,0.0,0.0,100,0.00,,---,0.09,0.00,VWS V14.01,2013-01-06 00:41:00,
2013-01-05 19:47:00,31.0,31.0,29.97,SSE,157,2.0,4.0,100,0.00,,---,0.09,0.00,VWS V14.01,2013-01-06 00:47:00,
2013-01-05 19:52:00,31.0,31.0,29.97,South,180,1.0,3.0,100,0.00,,---,0.09,0.00,VWS V14.01,2013-01-06 00:52:00,
2013-01-05 19:57:00,31.0,31.0,29.97,SSW,202,3.0,4.0,100,0.00,,---,0.09,0.00,VWS V14.01,2013-01-06 00:57:00,
2013-01-05 20:02:00,31.0,31.0,29.97,SSW,202,4.0,4.0,100,0.00,,---,0.09,0.00,VWS V14.01,2013-01-06 01:02:00,
2013-01-05 20:07:00,31.0,31.0,29.97,SW,225,2.0,3.0,100,0.00,,---,0.09,0.00,VWS V14.01,2013-01-06 01:07:00,
2013-01-05 20:12:00,31.0,31.0,29.97,South,180,4.0,6.0,100,0.00,,---,0.09,0.00,VWS V14.01,2013-01-06 01:12:00,
2013-01-05 20:17:00,31.0,31.0,29.97,SSW,202,1.0,5.0,100,0.00,,---,0.09,0.00,VWS V14.01,2013-01-06 01:17:00,
2013-01-05 20:22:00,31.0,31.0,29.97,SSW,202,3.0,3.0,100,0.00,,---,0.09,0.00,VWS V14.01,2013-01-06 01:22:00,
2013-01-05 20:27:00,32.0,32.0,29.97,SSE,157,1.0,3.0,100,0.00,,---,0.09,0.00,VWS V14.01,2013-01-06 01:27:00,
2013-01-05 20:32:00,32.0,32.0,29.97,SSW,202,1.0,1.0,100,0.00,,---,0.09,0.00,VWS V14.01,2013-01-06 01:32:00,
2013-01-05 20:37:00,32.0,32.0,29.97,SSE,157,6.0,6.0,100,0.00,,---,0.09,0.00,VWS V14.01,2013-01-06 01:37:00,
2013-01-05 20:42:00,32.0,32.0,29.97,South,180,1.0,4.0,100,0.00,,---,0.09,0.00,VWS V14.01,2013-01-06 01:42:00,
2013-01-05 20:47:00,32.0,32.0,29.97,South,180,1.0,4.0,100,0.00,,---,0.09,0.00,VWS V14.01,2013-01-06 01:47:00,
2013-01-05 20:52:00,32.0,32.0,29.97,South,180,1.0,4.0,100,0.00,,---,0.09,0.00,VWS V14.01,2013-01-06 01:52:00,
2013-01-05 20:57:00,32.0,32.0,29.97,SSW,202,2.0,3.0,100,0.00,,---,0.09,0.00,VWS V14.01,2013-01-06 01:57:00,
2013-01-05 21:02:00,32.0,32.0,29.97,WSW,247,3.0,5.0,100,0.00,,---,0.09,0.00,VWS V14.01,2013-01-06 02:02:00,
2013-01-05 21:07:00,32.0,32.0,29.97,South,180,3.0,5.0,100,0.00,,---,0.09,0.00,VWS V14.01,2013-01-06 02:07:00,
2013-01-05 21:12:00,32.0,32.0,29.97,South,180,3.0,3.0,100,0.00,,---,0.09,0.00,VWS V14.01,2013-01-06 02:12:00,
2013-01-05 21:17:00,32.0,32.0,29.97,SW,225,3.0,5.0,100,0.00,,---,0.09,0.00,VWS V14.01,2013-01-06 02:17:00,
2013-01-05 21:22:00,32.0,32.0,29.97,SW,225,1.0,6.0,100,0.00,,---,0.09,0.00,VWS V14.01,2013-01-06 02:22:00,
2013-01-05 21:27:00,32.0,32.0,29.97,South,180,1.0,4.0,100,0.00,,---,0.09,0.00,VWS V14.01,2013-01-06 02:27:00,
2013-01-05 21:32:00,32.0,32.0,29.97,South,180,3.0,5.0,100,0.00,,---,0.09,0.00,VWS V14.01,2013-01-06 02:32:00,
2013-01-05 21:37:00,32.0,32.0,29.97,SSW,202,0.0,3.0,100,0.00,,---,0.09,0.00,VWS V14.01,2013-01-06 02:37:00,
2013-01-05 21:42:00,32.0,32.0,29.97,SSW,202,3.0,6.0,100,0.00,,---,0.09,0.00,VWS V14.01,2013-01-06 02:42:00,
2013-01-05 21:47:00,32.0,32.0,29.97,SSW,202,3.0,6.0,100,0.00,,---,0.09,0.00,VWS V14.01,2013-01-06 02:47:00,
2013-01-05 21:52:00,32.0,32.0,29.97,SSW,202,4.0,6.0,100,0.00,,---,0.09,0.00,VWS V14.01,2013-01-06 02:52:00,
2013-01-05 21:57:00,32.0,32.0,29.96,SW,225,1.0,6.0,100,0.00,,---,0.09,0.00,VWS V14.01,2013-01-06 02:57:00,
2013-01-05 22:02:00,32.0,32.0,29.96,South,180,3.0,6.0,100,0.00,,---,0.09,0.00,VWS V14.01,2013-01-06 03:02:00,
2013-01-05 22:07:00,32.0,32.0,29.96,SSW,202,4.0,7.0,100,0.00,,---,0.09,0.00,VWS V14.01,2013-01-06 03:07:00,
2013-01-05 22:12:00,32.0,32.0,29.96,SSW,202,3.0,4.0,100,0.00,,---,0.09,0.00,VWS V14.01,2013-01-06 03:12:00,
2013-01-05 22:17:00,32.0,32.0,29.95,SSW,202,2.0,4.0,100,0.00,,---,0.09,0.00,VWS V14.01,2013-01-06 03:17:00,
2013-01-05 22:22:00,32.0,32.0,29.95,SW,225,1.0,6.0,100,0.00,,---,0.09,0.00,VWS V14.01,2013-01-06 03:22:00,
2013-01-05 22:27:00,32.0,32.0,29.95,SSW,202,0.0,5.0,100,0.00,,---,0.09,0.00,VWS V14.01,2013-01-06 03:27:00,
2013-01-05 22:32:00,32.0,32.0,29.95,South,180,4.0,7.0,100,0.00,,---,0.09,0.00,VWS V14.01,2013-01-06 03:32:00,
2013-01-05 22:37:00,32.0,32.0,29.94,South,180,1.0,2.0,100,0.00,,---,0.09,0.00,VWS V14.01,2013-01-06 03:37:00,
2013-01-05 22:42:00,32.0,32.0,29.94,South,180,3.0,6.0,100,0.00,,---,0.09,0.00,VWS V14.01,2013-01-06 03:42:00,
2013-01-05 22:47:00,32.0,32.0,29.94,SSW,202,3.0,3.0,100,0.00,,---,0.09,0.00,VWS V14.01,2013-01-06 03:47:00,
2013-01-05 22:52:00,32.0,32.0,29.94,SSW,202,1.0,3.0,100,0.00,,---,0.09,0.00,VWS V14.01,2013-01-06 03:52:00,
2013-01-05 22:57:00,32.0,32.0,29.94,SW,225,0.0,5.0,100,0.00,,---,0.09,0.00,VWS V14.01,2013-01-06 03:57:00,
2013-01-05 23:02:00,32.0,32.0,29.94,SSW,202,2.0,5.0,100,0.00,,---,0.09,0.00,VWS V14.01,2013-01-06 04:02:00,
2013-01-05 23:07:00,32.0,32.0,29.94,SW,225,1.0,4.0,100,0.00,,---,0.09,0.00,VWS V14.01,2013-01-06 04:07:00,
2013-01-05 23:12:00,32.0,32.0,29.94,SSW,202,2.0,6.0,100,0.00,,---,0.09,0.00,VWS V14.01,2013-01-06 04:12:00,
2013-01-05 23:17:00,32.0,32.0,29.93,SSE,157,3.0,4.0,100,0.00,,---,0.09,0.00,VWS V14.01,2013-01-06 04:17:00,
2013-01-05 23:22:00,32.0,32.0,29.93,WSW,247,0.0,4.0,100,0.00,,---,0.09,0.00,VWS V14.01,2013-01-06 04:22:00,
2013-01-05 23:27:00,32.0,32.0,29.93,SSW,202,1.0,3.0,100,0.00,,---,0.09,0.00,VWS V14.01,2013-01-06 04:27:00,
2013-01-05 23:32:00,33.0,33.0,29.93,SSW,202,3.0,4.0,100,0.00,,---,0.09,0.00,VWS V14.01,2013-01-06 04:32:00,
2013-01-05 23:37:00,32.0,32.0,29.92,South,180,4.0,5.0,100,0.00,,---,0.09,0.00,VWS V14.01,2013-01-06 04:37:00,
2013-01-05 23:42:00,32.0,32.0,29.92,SSW,202,0.0,4.0,100,0.00,,---,0.09,0.00,VWS V14.01,2013-01-06 04:42:00,
2013-01-05 23:47:00,32.0,32.0,29.91,SSE,157,3.0,5.0,100,0.00,,---,0.09,0.00,VWS V14.01,2013-01-06 04:47:00,
2013-01-05 23:52:00,33.0,33.0,29.91,SSW,202,0.0,0.0,100,0.00,,---,0.09,0.00,VWS V14.01,2013-01-06 04:52:00,
2013-01-05 23:57:00,33.0,33.0,29.91,WSW,247,0.0,5.0,100,0.00,,---,0.09,0.00,VWS V14.01,2013-01-06 04:57:00,